Regional Weather Roundup
Issued by NWS Albany, NY

Current Version | Previous Version | Graphics & Text | Print | Product List | Glossary Off
Versions: 1 2 3 4 5 6 7 8 9 10 11 12 13 14 15 16 17 18 19 20 21 22 23 24 25 26 27 28 29 30 31 32 33 34 35 36 37 38 39 40 41 42 43 44 45 46 47 48 49 50

000
ASUS41 KALY 020510
RWRALY

NEW YORK STATE HOURLY WEATHER ROUNDUP
NATIONAL WEATHER SERVICE ALBANY NY
100 AM EDT SAT AUG 02 2014

NOTE: "FAIR" INDICATES FEW OR NO CLOUDS BELOW 12,000 FEET WITH NO
SIGNIFICANT WEATHER AND/OR NO OBSTRUCTIONS TO VISIBILITY.

NYZ032-033-038>043-046>054-057>066-NYZ062>081-020600-
EAST


CITY           SKY/WX    TMP DP  RH WIND       PRES   REMARKS
ALBANY         CLOUDY    71  64  78 S7        30.19S
GLENS FALLS    MOCLDY    66  62  87 CALM      30.19S
POUGHKEEPSIE   CLOUDY    69  66  90 CALM      30.20S FOG
NEWBURGH       CLEAR     68  66  94 CALM      30.23R
MONTGOMERY     CLOUDY    65  63  93 CALM      30.20S
WHITE PLAINS   CLOUDY    68  65  90 CALM      30.20F
ISLIP          LGT RAIN  73  68  84 CALM      30.19S
NEW YORK CITY  CLOUDY    73  64  73 SE7       30.19S
CENTRAL PARK   CLOUDY    73  64  73 VRB3      30.22S
$$

NYZ005>009-017-018-044>046-055-056-020600-
CENTRAL


CITY           SKY/WX    TMP DP  RH WIND       PRES   REMARKS
FULTON         MOCLDY    66  60  81 VRB3      30.13F
SYRACUSE       MOCLDY    69  63  81 SE6       30.14F
ROME           MOCLDY    67  62  84 SE5       30.18S
ELMIRA         MOCLDY    63  61  93 CALM      30.17S
BINGHAMTON     MOCLDY    65  62  90 S3        30.20F
MONTICELLO     CLOUDY    63  63 100 CALM      30.24F
$$

NYZ026>034-041>043-020600-
NORTH


CITY           SKY/WX    TMP DP  RH WIND       PRES   REMARKS
WATERTOWN      PTCLDY    67  61  81 CALM      30.13S
FORT DRUM      NOT AVBL
MASSENA        CLEAR     59  58  96 CALM      30.14S FOG
SARANAC LAKE   PTCLDY    53  52  96 CALM      30.20S FOG
PLATTSBURGH    PTCLDY    62  61  96 CALM      30.15S FOG
$$

NYZ001>004-010>016-019>021-020600-
WEST


CITY           SKY/WX    TMP DP  RH WIND       PRES   REMARKS
NIAGARA FALLS  PTCLDY    64  62  93 CALM      30.12R FOG
BUFFALO        PTCLDY    68  62  81 S3        30.13S
DUNKIRK        PTCLDY    70  59  68 S9G22     30.12S
JAMESTOWN      CLOUDY    63  61  94 S5        30.18S
WELLSVILLE     CLOUDY    66  59  78 E3        30.22S
ROCHESTER      PTCLDY    65  62  90 CALM      30.13F
PENN YAN       MOCLDY    66  60  81 S8        30.15F
$$

             KEY
       WCI = WIND CHILL INDEX
       VSB = VISIBILITY
       HX  = HEAT INDEX
$$


USA.gov is the U.S. government's official web portal to all federal, state and local government web resources and services.